Time,TemperatureF,DewpointF,PressureIn,WindDirection,WindDirectionDegrees,WindSpeedMPH,WindSpeedGustMPH,Humidity,HourlyPrecipIn,Conditions,Clouds,dailyrainin,SoftwareType,DateUTC
2013-06-17 00:00:00,56.9,53.4,29.85,ENE,61,0.0,0.0,88,0.00,,---,0.09,VWS V14.01,2013-06-17 04:00:00,
2013-06-17 00:01:00,56.9,53.4,29.86,ENE,61,0.0,0.0,88,0.00,,---,0.00,VWS V14.01,2013-06-17 04:01:00,
2013-06-17 00:02:00,56.7,53.2,29.86,ENE,61,0.0,0.0,88,0.00,,---,0.00,VWS V14.01,2013-06-17 04:02:00,
2013-06-17 00:07:00,56.7,53.5,29.85,ENE,61,0.0,0.0,89,0.00,,---,0.00,VWS V14.01,2013-06-17 04:07:00,
2013-06-17 00:12:00,56.6,53.4,29.85,ENE,61,0.0,0.0,89,0.00,,---,0.00,VWS V14.01,2013-06-17 04:12:00,
2013-06-17 00:17:00,56.3,53.1,29.85,ESE,123,0.0,0.0,89,0.00,,---,0.00,VWS V14.01,2013-06-17 04:17:00,
2013-06-17 00:22:00,56.2,53.3,29.85,South,190,0.0,0.0,90,0.00,,---,0.00,VWS V14.01,2013-06-17 04:22:00,
2013-06-17 00:28:00,56.0,53.1,29.85,South,190,0.0,0.0,90,0.00,,---,0.00,VWS V14.01,2013-06-17 04:28:00,
2013-06-17 00:33:00,56.0,53.1,29.85,South,190,0.0,0.0,90,0.00,,---,0.00,VWS V14.01,2013-06-17 04:33:00,
2013-06-17 00:38:00,55.9,53.3,29.85,South,190,0.0,0.0,91,0.00,,---,0.00,VWS V14.01,2013-06-17 04:38:00,
2013-06-17 00:43:00,55.9,53.3,29.86,South,190,0.0,0.0,91,0.00,,---,0.00,VWS V14.01,2013-06-17 04:43:00,
2013-06-17 00:48:00,55.7,53.1,29.86,South,190,0.0,0.0,91,0.00,,---,0.00,VWS V14.01,2013-06-17 04:48:00,
2013-06-17 00:53:00,55.7,53.4,29.86,South,190,0.0,0.0,92,0.00,,---,0.00,VWS V14.01,2013-06-17 04:53:00,
2013-06-17 00:58:00,55.7,53.4,29.86,South,190,0.0,0.0,92,0.00,,---,0.00,VWS V14.01,2013-06-17 04:58:00,
2013-06-17 01:03:00,55.7,53.4,29.87,South,190,0.0,0.0,92,0.00,,---,0.00,VWS V14.01,2013-06-17 05:03:00,
2013-06-17 01:08:00,55.7,53.7,29.87,South,190,0.0,0.0,93,0.00,,---,0.00,VWS V14.01,2013-06-17 05:08:00,
2013-06-17 01:13:00,55.9,53.9,29.87,South,190,0.0,0.0,93,0.00,,---,0.00,VWS V14.01,2013-06-17 05:13:00,
2013-06-17 01:18:00,55.9,53.9,29.87,South,190,0.0,0.0,93,0.00,,---,0.00,VWS V14.01,2013-06-17 05:18:00,
2013-06-17 01:23:00,55.9,53.9,29.87,South,190,0.0,0.0,93,0.00,,---,0.00,VWS V14.01,2013-06-17 05:23:00,
2013-06-17 01:28:00,55.9,53.9,29.87,South,190,0.0,0.0,93,0.00,,---,0.00,VWS V14.01,2013-06-17 05:28:00,
2013-06-17 01:33:00,55.9,53.9,29.87,South,190,0.0,0.0,93,0.00,,---,0.00,VWS V14.01,2013-06-17 05:33:00,
2013-06-17 01:38:00,56.0,54.0,29.87,South,190,0.0,0.0,93,0.00,,---,0.00,VWS V14.01,2013-06-17 05:38:00,
2013-06-17 01:43:00,56.2,53.9,29.87,South,190,0.0,0.0,92,0.00,,---,0.00,VWS V14.01,2013-06-17 05:43:00,
2013-06-17 01:48:00,56.3,54.0,29.87,South,190,0.0,0.0,92,0.00,,---,0.00,VWS V14.01,2013-06-17 05:48:00,
2013-06-17 01:53:00,56.5,54.2,29.86,South,190,0.0,0.0,92,0.00,,---,0.00,VWS V14.01,2013-06-17 05:53:00,
2013-06-17 01:58:00,56.6,54.0,29.86,SSW,201,0.0,0.0,91,0.01,,---,0.01,VWS V14.01,2013-06-17 05:58:00,
2013-06-17 02:03:00,56.9,54.3,29.86,SSW,201,0.0,0.0,91,0.01,,---,0.01,VWS V14.01,2013-06-17 06:03:00,
2013-06-17 02:08:00,56.9,54.3,29.86,SSW,201,0.0,0.0,91,0.01,,---,0.01,VWS V14.01,2013-06-17 06:08:00,
2013-06-17 02:13:00,57.0,54.1,29.85,SSW,201,0.0,0.0,90,0.01,,---,0.01,VWS V14.01,2013-06-17 06:13:00,
2013-06-17 02:18:00,57.0,54.1,29.85,East,86,0.0,0.0,90,0.01,,---,0.01,VWS V14.01,2013-06-17 06:18:00,
2013-06-17 02:23:00,56.9,54.0,29.85,East,86,0.0,0.0,90,0.01,,---,0.01,VWS V14.01,2013-06-17 06:23:00,
2013-06-17 02:28:00,56.7,54.1,29.86,East,86,0.0,0.0,91,0.01,,---,0.01,VWS V14.01,2013-06-17 06:28:00,
2013-06-17 02:33:00,56.7,54.1,29.86,East,86,0.0,0.0,91,0.01,,---,0.01,VWS V14.01,2013-06-17 06:33:00,
2013-06-17 02:38:00,56.7,54.1,29.86,East,86,0.0,0.0,91,0.01,,---,0.01,VWS V14.01,2013-06-17 06:38:00,
2013-06-17 02:43:00,56.6,54.0,29.86,East,86,0.0,0.0,91,0.01,,---,0.01,VWS V14.01,2013-06-17 06:43:00,
2013-06-17 02:48:00,56.5,53.9,29.86,East,86,0.0,0.0,91,0.01,,---,0.01,VWS V14.01,2013-06-17 06:48:00,
2013-06-17 02:53:00,56.3,53.7,29.85,East,86,0.0,0.0,91,0.01,,---,0.01,VWS V14.01,2013-06-17 06:53:00,
2013-06-17 02:58:00,56.3,54.0,29.85,East,86,0.0,0.0,92,0.01,,---,0.01,VWS V14.01,2013-06-17 06:58:00,
2013-06-17 03:03:00,56.2,53.9,29.83,SSE,156,0.0,0.0,92,0.00,,---,0.01,VWS V14.01,2013-06-17 07:03:00,
2013-06-17 03:08:00,56.0,53.7,29.83,SSE,152,0.0,0.0,92,0.00,,---,0.01,VWS V14.01,2013-06-17 07:08:00,
2013-06-17 03:13:00,55.9,53.6,29.84,SSE,157,0.0,0.0,92,0.00,,---,0.01,VWS V14.01,2013-06-17 07:13:00,
2013-06-17 03:18:00,55.7,53.4,29.84,SSE,157,0.0,0.0,92,0.00,,---,0.01,VWS V14.01,2013-06-17 07:18:00,
2013-06-17 03:24:00,55.6,53.3,29.85,SSE,157,0.0,0.0,92,0.00,,---,0.01,VWS V14.01,2013-06-17 07:24:00,
2013-06-17 03:29:00,55.4,53.1,29.86,SSE,157,0.0,0.0,92,0.00,,---,0.01,VWS V14.01,2013-06-17 07:29:00,
2013-06-17 03:34:00,55.1,52.8,29.85,East,93,0.0,0.0,92,0.00,,---,0.01,VWS V14.01,2013-06-17 07:34:00,
2013-06-17 03:39:00,54.7,52.7,29.86,East,82,0.0,0.0,93,0.00,,---,0.01,VWS V14.01,2013-06-17 07:39:00,
2013-06-17 03:44:00,54.5,52.8,29.87,East,82,0.0,0.0,94,0.00,,---,0.01,VWS V14.01,2013-06-17 07:44:00,
2013-06-17 03:49:00,54.5,53.1,29.87,East,82,0.0,0.0,95,0.00,,---,0.01,VWS V14.01,2013-06-17 07:49:00,
2013-06-17 03:54:00,54.5,53.1,29.87,East,82,0.0,0.0,95,0.00,,---,0.01,VWS V14.01,2013-06-17 07:54:00,
2013-06-17 03:59:00,54.5,53.1,29.87,East,82,0.0,0.0,95,0.00,,---,0.01,VWS V14.01,2013-06-17 07:59:00,
2013-06-17 04:04:00,54.5,53.1,29.88,ENE,57,0.0,0.0,95,0.00,,---,0.01,VWS V14.01,2013-06-17 08:04:00,
2013-06-17 04:09:00,54.5,53.4,29.88,NE,55,0.0,0.0,96,0.00,,---,0.01,VWS V14.01,2013-06-17 08:09:00,
2013-06-17 04:14:00,54.5,53.4,29.88,NE,55,0.0,0.0,96,0.00,,---,0.01,VWS V14.01,2013-06-17 08:14:00,
2013-06-17 04:19:00,54.7,53.6,29.88,NE,55,0.0,0.0,96,0.00,,---,0.01,VWS V14.01,2013-06-17 08:19:00,
2013-06-17 04:24:00,54.5,53.4,29.88,NE,55,0.0,0.0,96,0.00,,---,0.01,VWS V14.01,2013-06-17 08:24:00,
2013-06-17 04:29:00,54.4,53.3,29.88,NE,55,0.0,0.0,96,0.00,,---,0.01,VWS V14.01,2013-06-17 08:29:00,
2013-06-17 04:34:00,54.4,53.3,29.88,NE,55,0.0,0.0,96,0.00,,---,0.01,VWS V14.01,2013-06-17 08:34:00,
2013-06-17 04:39:00,54.2,53.1,29.88,NE,55,0.0,0.0,96,0.00,,---,0.01,VWS V14.01,2013-06-17 08:39:00,
2013-06-17 04:44:00,54.1,53.0,29.88,NE,55,0.0,0.0,96,0.00,,---,0.01,VWS V14.01,2013-06-17 08:44:00,
2013-06-17 04:49:00,53.9,52.8,29.88,NE,55,0.0,0.0,96,0.00,,---,0.01,VWS V14.01,2013-06-17 08:49:00,
2013-06-17 04:54:00,53.9,52.8,29.88,NE,55,0.0,0.0,96,0.00,,---,0.01,VWS V14.01,2013-06-17 08:54:00,
2013-06-17 04:59:00,53.9,52.8,29.89,NE,55,0.0,0.0,96,0.00,,---,0.01,VWS V14.01,2013-06-17 08:59:00,
2013-06-17 05:04:00,54.1,53.0,29.89,NE,55,0.0,0.0,96,0.00,,---,0.01,VWS V14.01,2013-06-17 09:04:00,
2013-06-17 05:09:00,54.2,53.4,29.90,NE,55,0.0,0.0,97,0.00,,---,0.01,VWS V14.01,2013-06-17 09:09:00,
2013-06-17 05:14:00,54.4,53.6,29.90,West,267,0.0,0.0,97,0.00,,---,0.01,VWS V14.01,2013-06-17 09:14:00,
2013-06-17 05:19:00,54.5,53.7,29.90,West,267,0.0,0.0,97,0.00,,---,0.01,VWS V14.01,2013-06-17 09:19:00,
2013-06-17 05:24:00,54.5,53.7,29.90,West,267,0.0,0.0,97,0.00,,---,0.01,VWS V14.01,2013-06-17 09:24:00,
2013-06-17 05:29:00,54.5,53.7,29.91,West,267,0.0,0.0,97,0.00,,---,0.01,VWS V14.01,2013-06-17 09:29:00,
2013-06-17 05:34:00,54.5,53.7,29.90,West,267,0.0,0.0,97,0.00,,---,0.01,VWS V14.01,2013-06-17 09:34:00,
2013-06-17 05:39:00,54.5,53.7,29.90,West,267,0.0,0.0,97,0.00,,---,0.01,VWS V14.01,2013-06-17 09:39:00,
2013-06-17 05:44:00,54.5,53.7,29.91,West,267,0.0,0.0,97,0.00,,---,0.01,VWS V14.01,2013-06-17 09:44:00,
2013-06-17 05:49:00,54.5,53.7,29.90,West,267,0.0,0.0,97,0.00,,---,0.01,VWS V14.01,2013-06-17 09:49:00,
2013-06-17 05:54:00,54.7,53.9,29.90,West,267,0.0,0.0,97,0.00,,---,0.01,VWS V14.01,2013-06-17 09:54:00,
2013-06-17 05:59:00,54.7,53.9,29.90,West,267,0.0,0.0,97,0.00,,---,0.01,VWS V14.01,2013-06-17 09:59:00,
2013-06-17 06:04:00,54.7,53.9,29.90,West,267,0.0,0.0,97,0.00,,---,0.01,VWS V14.01,2013-06-17 10:04:00,
2013-06-17 06:09:00,54.7,53.9,29.90,West,267,0.0,0.0,97,0.00,,---,0.01,VWS V14.01,2013-06-17 10:09:00,
2013-06-17 06:14:00,54.7,53.9,29.90,West,267,0.0,0.0,97,0.00,,---,0.01,VWS V14.01,2013-06-17 10:14:00,
2013-06-17 06:20:00,54.7,53.9,29.91,West,267,0.0,0.0,97,0.00,,---,0.01,VWS V14.01,2013-06-17 10:20:00,
2013-06-17 06:25:00,54.7,53.9,29.90,West,267,0.0,0.0,97,0.00,,---,0.01,VWS V14.01,2013-06-17 10:25:00,
2013-06-17 06:30:00,54.7,53.9,29.90,West,267,0.0,0.0,97,0.00,,---,0.01,VWS V14.01,2013-06-17 10:30:00,
2013-06-17 06:35:00,54.7,53.9,29.90,West,267,0.0,0.0,97,0.00,,---,0.01,VWS V14.01,2013-06-17 10:35:00,
2013-06-17 06:40:00,54.5,53.7,29.90,West,267,0.0,0.0,97,0.00,,---,0.01,VWS V14.01,2013-06-17 10:40:00,
2013-06-17 06:45:00,54.4,53.6,29.90,West,267,0.0,0.0,97,0.00,,---,0.01,VWS V14.01,2013-06-17 10:45:00,
2013-06-17 06:50:00,54.4,53.6,29.90,West,267,0.0,0.0,97,0.00,,---,0.01,VWS V14.01,2013-06-17 10:50:00,
2013-06-17 06:55:00,54.4,53.6,29.90,West,267,0.0,0.0,97,0.00,,---,0.01,VWS V14.01,2013-06-17 10:55:00,
2013-06-17 07:00:00,54.2,53.4,29.91,West,267,0.0,0.0,97,0.00,,---,0.01,VWS V14.01,2013-06-17 11:00:00,
2013-06-17 07:05:00,54.5,53.7,29.91,West,267,0.0,0.0,97,0.00,,---,0.01,VWS V14.01,2013-06-17 11:05:00,
2013-06-17 07:10:00,54.8,54.0,29.90,West,267,0.0,0.0,97,0.00,,---,0.01,VWS V14.01,2013-06-17 11:10:00,
2013-06-17 07:15:00,54.8,54.0,29.91,West,267,0.0,0.0,97,0.00,,---,0.01,VWS V14.01,2013-06-17 11:15:00,
2013-06-17 07:20:00,55.1,54.3,29.91,West,267,0.0,0.0,97,0.00,,---,0.01,VWS V14.01,2013-06-17 11:20:00,
2013-06-17 07:25:00,55.9,55.3,29.91,West,267,0.0,0.0,98,0.00,,---,0.01,VWS V14.01,2013-06-17 11:25:00,
2013-06-17 07:30:00,56.6,56.0,29.91,West,267,0.0,0.0,98,0.00,,---,0.01,VWS V14.01,2013-06-17 11:30:00,
2013-06-17 07:35:00,56.6,55.8,29.91,SE,142,0.0,0.0,97,0.00,,---,0.01,VWS V14.01,2013-06-17 11:35:00,
2013-06-17 07:40:00,56.7,55.9,29.91,SE,142,0.0,0.0,97,0.00,,---,0.01,VWS V14.01,2013-06-17 11:40:00,
2013-06-17 07:45:00,57.3,56.5,29.90,SE,142,0.0,0.0,97,0.00,,---,0.01,VWS V14.01,2013-06-17 11:45:00,
2013-06-17 07:50:00,58.1,56.4,29.91,SE,142,0.0,0.0,94,0.00,,---,0.01,VWS V14.01,2013-06-17 11:50:00,
2013-06-17 07:55:00,59.2,56.6,29.91,SE,142,0.0,0.0,91,0.00,,---,0.01,VWS V14.01,2013-06-17 11:55:00,
2013-06-17 08:00:00,59.9,56.0,29.91,SE,142,0.0,0.0,87,0.00,,---,0.01,VWS V14.01,2013-06-17 12:00:00,
2013-06-17 08:05:00,60.4,55.9,29.91,SE,142,0.0,0.0,85,0.00,,---,0.01,VWS V14.01,2013-06-17 12:05:00,
2013-06-17 08:10:00,61.2,56.0,29.91,SE,142,0.0,0.0,83,0.00,,---,0.01,VWS V14.01,2013-06-17 12:10:00,
2013-06-17 08:15:00,61.8,55.9,29.91,SE,142,0.0,0.0,81,0.00,,---,0.01,VWS V14.01,2013-06-17 12:15:00,
2013-06-17 08:20:00,62.1,56.5,29.91,ENE,69,0.0,0.0,82,0.00,,---,0.01,VWS V14.01,2013-06-17 12:20:00,
2013-06-17 08:25:00,62.0,56.5,29.91,ENE,63,0.0,0.0,82,0.00,,---,0.01,VWS V14.01,2013-06-17 12:25:00,
2013-06-17 08:30:00,61.3,55.4,29.91,ENE,63,0.0,0.0,81,0.00,,---,0.01,VWS V14.01,2013-06-17 12:30:00,
2013-06-17 08:35:00,60.9,55.7,29.91,North,5,0.0,0.0,83,0.00,,---,0.01,VWS V14.01,2013-06-17 12:35:00,
2013-06-17 08:40:00,60.4,55.5,29.91,NNE,22,0.0,0.0,84,0.00,,---,0.01,VWS V14.01,2013-06-17 12:40:00,
2013-06-17 08:45:00,60.2,55.7,29.91,NNW,335,0.0,0.0,85,0.00,,---,0.01,VWS V14.01,2013-06-17 12:45:00,
2013-06-17 08:50:00,60.9,56.0,29.90,NE,53,0.0,0.0,84,0.00,,---,0.01,VWS V14.01,2013-06-17 12:50:00,
2013-06-17 08:55:00,61.5,56.3,29.91,NNE,22,0.0,0.0,83,0.00,,---,0.01,VWS V14.01,2013-06-17 12:55:00,
2013-06-17 09:00:00,61.3,55.8,29.91,North,5,0.0,0.0,82,0.00,,---,0.01,VWS V14.01,2013-06-17 13:00:00,
2013-06-17 09:05:00,61.2,55.3,29.91,North,5,0.0,0.0,81,0.00,,---,0.01,VWS V14.01,2013-06-17 13:05:00,
2013-06-17 09:10:00,61.0,55.8,29.91,North,355,0.0,0.0,83,0.00,,---,0.01,VWS V14.01,2013-06-17 13:10:00,
2013-06-17 09:15:00,60.9,55.7,29.91,NE,34,0.0,0.0,83,0.00,,---,0.01,VWS V14.01,2013-06-17 13:15:00,
2013-06-17 09:20:00,61.6,56.7,29.91,NNE,22,0.0,0.0,84,0.00,,---,0.01,VWS V14.01,2013-06-17 13:20:00,
2013-06-17 09:25:00,61.8,55.9,29.92,NNE,28,0.0,0.0,81,0.00,,---,0.01,VWS V14.01,2013-06-17 13:25:00,
2013-06-17 09:30:00,62.1,55.9,29.92,North,9,0.0,0.0,80,0.00,,---,0.01,VWS V14.01,2013-06-17 13:30:00,
2013-06-17 09:36:00,62.0,55.4,29.91,NNE,17,0.0,0.0,79,0.00,,---,0.01,VWS V14.01,2013-06-17 13:36:00,
2013-06-17 09:41:00,61.5,55.6,29.92,NE,34,0.0,0.0,81,0.00,,---,0.01,VWS V14.01,2013-06-17 13:41:00,
2013-06-17 09:46:00,61.2,55.3,29.92,NNW,344,0.0,0.0,81,0.00,,---,0.01,VWS V14.01,2013-06-17 13:46:00,
2013-06-17 09:51:00,60.7,54.8,29.92,NNE,32,0.0,0.0,81,0.00,,---,0.01,VWS V14.01,2013-06-17 13:51:00,
2013-06-17 09:56:00,60.2,54.7,29.93,NNE,13,0.0,0.0,82,0.00,,---,0.01,VWS V14.01,2013-06-17 13:56:00,
2013-06-17 10:01:00,60.2,54.7,29.93,North,5,0.0,0.0,82,0.00,,---,0.01,VWS V14.01,2013-06-17 14:01:00,
2013-06-17 10:06:00,60.1,54.9,29.93,NNE,32,0.0,0.0,83,0.00,,---,0.01,VWS V14.01,2013-06-17 14:06:00,
2013-06-17 10:11:00,60.1,54.9,29.93,NNE,32,0.0,0.0,83,0.00,,---,0.01,VWS V14.01,2013-06-17 14:11:00,
2013-06-17 10:16:00,59.9,54.7,29.93,NE,34,0.0,0.0,83,0.00,,---,0.01,VWS V14.01,2013-06-17 14:16:00,
2013-06-17 10:21:00,59.8,55.0,29.93,North,355,0.0,0.0,84,0.00,,---,0.01,VWS V14.01,2013-06-17 14:21:00,
2013-06-17 10:26:00,59.6,54.4,29.93,NNE,16,0.0,0.0,83,0.00,,---,0.01,VWS V14.01,2013-06-17 14:26:00,
2013-06-17 10:31:00,59.5,54.7,29.93,NNE,13,0.0,0.0,84,0.00,,---,0.01,VWS V14.01,2013-06-17 14:31:00,
2013-06-17 10:36:00,59.6,55.4,29.92,North,9,0.0,0.0,86,0.00,,---,0.01,VWS V14.01,2013-06-17 14:36:00,
2013-06-17 10:41:00,59.8,55.3,29.93,North,360,0.0,0.0,85,0.00,,---,0.01,VWS V14.01,2013-06-17 14:41:00,
2013-06-17 10:46:00,59.9,55.1,29.93,NNW,348,0.0,0.0,84,0.00,,---,0.01,VWS V14.01,2013-06-17 14:46:00,
2013-06-17 10:51:00,59.9,55.1,29.93,North,355,0.0,0.0,84,0.00,,---,0.01,VWS V14.01,2013-06-17 14:51:00,
2013-06-17 10:56:00,59.9,55.1,29.93,North,355,0.0,0.0,84,0.00,,---,0.01,VWS V14.01,2013-06-17 14:56:00,
2013-06-17 11:01:00,59.9,54.7,29.93,North,355,0.0,0.0,83,0.00,,---,0.01,VWS V14.01,2013-06-17 15:01:00,
2013-06-17 11:06:00,60.2,55.0,29.94,North,9,0.0,0.0,83,0.00,,---,0.01,VWS V14.01,2013-06-17 15:06:00,
2013-06-17 11:11:00,60.4,55.2,29.94,North,9,0.0,0.0,83,0.00,,---,0.01,VWS V14.01,2013-06-17 15:11:00,
2013-06-17 11:16:00,60.9,56.4,29.94,North,9,0.0,0.0,85,0.00,,---,0.01,VWS V14.01,2013-06-17 15:16:00,
2013-06-17 11:21:00,61.0,55.8,29.94,North,5,0.0,0.0,83,0.00,,---,0.01,VWS V14.01,2013-06-17 15:21:00,
2013-06-17 11:26:00,61.3,56.1,29.94,North,5,0.0,0.0,83,0.00,,---,0.01,VWS V14.01,2013-06-17 15:26:00,
2013-06-17 11:31:00,61.6,56.1,29.94,North,5,0.0,0.0,82,0.00,,---,0.01,VWS V14.01,2013-06-17 15:31:00,
2013-06-17 11:36:00,62.1,56.2,29.94,NE,37,0.0,0.0,81,0.00,,---,0.01,VWS V14.01,2013-06-17 15:36:00,
2013-06-17 11:41:00,62.9,55.6,29.94,NE,42,0.0,0.0,77,0.00,,---,0.01,VWS V14.01,2013-06-17 15:41:00,
2013-06-17 11:46:00,63.2,56.2,29.94,NNE,28,0.0,0.0,78,0.00,,---,0.01,VWS V14.01,2013-06-17 15:46:00,
2013-06-17 11:51:00,63.9,55.8,29.93,NNE,25,0.0,0.0,75,0.00,,---,0.01,VWS V14.01,2013-06-17 15:51:00,
2013-06-17 11:56:00,64.2,56.1,29.94,NE,47,0.0,0.0,75,0.00,,---,0.01,VWS V14.01,2013-06-17 15:56:00,
2013-06-17 12:01:00,64.5,55.7,29.94,NNW,333,0.0,0.0,73,0.00,,---,0.01,VWS V14.01,2013-06-17 16:01:00,
2013-06-17 12:06:00,64.8,56.3,29.94,North,5,0.0,0.0,74,0.00,,---,0.01,VWS V14.01,2013-06-17 16:06:00,
2013-06-17 12:11:00,64.7,55.5,29.94,NNW,339,0.0,0.0,72,0.00,,---,0.01,VWS V14.01,2013-06-17 16:11:00,
2013-06-17 12:16:00,64.3,55.5,29.94,NNW,346,0.0,0.0,73,0.00,,---,0.01,VWS V14.01,2013-06-17 16:16:00,
2013-06-17 12:22:00,64.5,56.0,29.94,NNW,338,0.0,0.0,74,0.00,,---,0.01,VWS V14.01,2013-06-17 16:22:00,
2013-06-17 12:27:00,64.7,55.9,29.94,NNW,348,0.0,0.0,73,0.00,,---,0.01,VWS V14.01,2013-06-17 16:27:00,
2013-06-17 12:32:00,64.5,56.0,29.94,North,360,0.0,0.0,74,0.00,,---,0.01,VWS V14.01,2013-06-17 16:32:00,
2013-06-17 12:37:00,64.5,56.0,29.94,North,360,0.0,0.0,74,0.00,,---,0.01,VWS V14.01,2013-06-17 16:37:00,
2013-06-17 12:42:00,64.7,56.2,29.94,NNE,14,0.0,0.0,74,0.00,,---,0.01,VWS V14.01,2013-06-17 16:42:00,
2013-06-17 12:47:00,65.2,56.7,29.94,NNW,342,0.0,0.0,74,0.00,,---,0.01,VWS V14.01,2013-06-17 16:47:00,
2013-06-17 12:52:00,65.3,56.4,29.94,North,360,0.0,0.0,73,0.00,,---,0.01,VWS V14.01,2013-06-17 16:52:00,
2013-06-17 12:57:00,65.8,56.5,29.94,North,5,0.0,0.0,72,0.00,,---,0.01,VWS V14.01,2013-06-17 16:57:00,
2013-06-17 13:02:00,66.3,57.0,29.94,North,5,0.0,0.0,72,0.00,,---,0.01,VWS V14.01,2013-06-17 17:02:00,
2013-06-17 13:07:00,66.6,56.1,29.94,North,5,0.0,0.0,69,0.00,,---,0.01,VWS V14.01,2013-06-17 17:07:00,
2013-06-17 13:12:00,67.3,56.8,29.94,NNE,14,0.0,0.0,69,0.00,,---,0.01,VWS V14.01,2013-06-17 17:12:00,
2013-06-17 13:17:00,67.1,57.0,29.94,North,360,0.0,0.0,70,0.00,,---,0.01,VWS V14.01,2013-06-17 17:17:00,
2013-06-17 13:22:00,67.1,57.4,29.94,North,5,0.0,0.0,71,0.00,,---,0.01,VWS V14.01,2013-06-17 17:22:00,
2013-06-17 13:27:00,67.4,56.9,29.94,NW,320,0.0,0.0,69,0.00,,---,0.01,VWS V14.01,2013-06-17 17:27:00,
2013-06-17 13:32:00,67.8,56.5,29.94,NNW,334,0.0,0.0,67,0.00,,---,0.01,VWS V14.01,2013-06-17 17:32:00,
2013-06-17 13:37:00,67.9,56.5,29.94,North,355,0.0,0.0,67,0.00,,---,0.01,VWS V14.01,2013-06-17 17:37:00,
2013-06-17 13:42:00,68.1,57.6,29.94,North,5,0.0,0.0,69,0.00,,---,0.01,VWS V14.01,2013-06-17 17:42:00,
2013-06-17 13:47:00,67.9,56.1,29.94,NNW,339,0.0,0.0,66,0.00,,---,0.01,VWS V14.01,2013-06-17 17:47:00,
2013-06-17 13:52:00,68.3,56.1,29.94,North,355,0.0,0.0,65,0.00,,---,0.01,VWS V14.01,2013-06-17 17:52:00,
2013-06-17 13:57:00,68.3,55.7,29.94,NNW,337,0.0,0.0,64,0.00,,---,0.01,VWS V14.01,2013-06-17 17:57:00,
2013-06-17 14:02:00,68.8,54.8,29.93,NNW,343,0.0,0.0,61,0.00,,---,0.01,VWS V14.01,2013-06-17 18:02:00,
2013-06-17 14:07:00,69.4,58.0,29.94,NNW,330,0.0,0.0,67,0.00,,---,0.01,VWS V14.01,2013-06-17 18:07:00,
2013-06-17 14:12:00,69.3,57.5,29.93,NE,34,0.0,0.0,66,0.00,,---,0.01,VWS V14.01,2013-06-17 18:12:00,
2013-06-17 14:17:00,69.3,56.6,29.93,North,355,0.0,0.0,64,0.00,,---,0.01,VWS V14.01,2013-06-17 18:17:00,
2013-06-17 14:22:00,69.3,57.0,29.93,North,10,0.0,0.0,65,0.00,,---,0.01,VWS V14.01,2013-06-17 18:22:00,
2013-06-17 14:27:00,69.1,56.0,29.93,North,360,0.0,0.0,63,0.00,,---,0.01,VWS V14.01,2013-06-17 18:27:00,
2013-06-17 14:32:00,69.1,55.5,29.93,North,11,0.0,0.0,62,0.00,,---,0.01,VWS V14.01,2013-06-17 18:32:00,
2013-06-17 14:38:00,68.8,55.3,29.93,North,11,0.0,0.0,62,0.00,,---,0.01,VWS V14.01,2013-06-17 18:38:00,
2013-06-17 14:43:00,69.1,54.7,29.93,North,10,0.0,0.0,60,0.00,,---,0.01,VWS V14.01,2013-06-17 18:43:00,
2013-06-17 14:48:00,68.9,56.7,29.93,North,355,0.0,0.0,65,0.00,,---,0.01,VWS V14.01,2013-06-17 18:48:00,
2013-06-17 14:53:00,69.1,59.3,29.93,North,5,0.0,0.0,71,0.00,,---,0.01,VWS V14.01,2013-06-17 18:53:00,
2013-06-17 14:58:00,68.6,57.2,29.93,North,360,0.0,0.0,67,0.00,,---,0.01,VWS V14.01,2013-06-17 18:58:00,
2013-06-17 15:03:00,67.9,56.5,29.93,North,355,0.0,0.0,67,0.00,,---,0.01,VWS V14.01,2013-06-17 19:03:00,
2013-06-17 15:08:00,67.3,56.0,29.93,NE,37,0.0,0.0,67,0.00,,---,0.01,VWS V14.01,2013-06-17 19:08:00,
2013-06-17 15:13:00,67.6,55.4,29.93,North,350,0.0,0.0,65,0.00,,---,0.01,VWS V14.01,2013-06-17 19:13:00,
2013-06-17 15:18:00,67.8,55.2,29.93,NNE,23,0.0,0.0,64,0.00,,---,0.01,VWS V14.01,2013-06-17 19:18:00,
2013-06-17 15:23:00,67.4,55.7,29.93,North,5,0.0,0.0,66,0.00,,---,0.01,VWS V14.01,2013-06-17 19:23:00,
2013-06-17 15:28:00,67.1,55.0,29.93,North,5,0.0,0.0,65,0.00,,---,0.01,VWS V14.01,2013-06-17 19:28:00,
2013-06-17 15:33:00,66.8,54.2,29.93,NNE,30,0.0,0.0,64,0.00,,---,0.01,VWS V14.01,2013-06-17 19:33:00,
2013-06-17 15:38:00,67.1,55.8,29.93,NNE,19,0.0,0.0,67,0.00,,---,0.01,VWS V14.01,2013-06-17 19:38:00,
2013-06-17 15:43:00,66.8,55.9,29.93,NE,54,0.0,0.0,68,0.00,,---,0.01,VWS V14.01,2013-06-17 19:43:00,
2013-06-17 15:48:00,66.3,56.2,29.93,North,360,0.0,0.0,70,0.00,,---,0.01,VWS V14.01,2013-06-17 19:48:00,
2013-06-17 15:53:00,66.3,56.6,29.93,North,355,0.0,0.0,71,0.00,,---,0.01,VWS V14.01,2013-06-17 19:53:00,
2013-06-17 15:58:00,66.1,56.0,29.94,NNE,16,0.0,0.0,70,0.00,,---,0.01,VWS V14.01,2013-06-17 19:58:00,
2013-06-17 16:03:00,66.0,56.7,29.94,NE,38,0.0,0.0,72,0.00,,---,0.01,VWS V14.01,2013-06-17 20:03:00,
2013-06-17 16:08:00,65.6,56.0,29.94,NNE,15,0.0,0.0,71,0.00,,---,0.01,VWS V14.01,2013-06-17 20:08:00,
2013-06-17 16:13:00,65.0,55.8,29.94,NNE,26,0.0,0.0,72,0.00,,---,0.01,VWS V14.01,2013-06-17 20:13:00,
2013-06-17 16:18:00,64.8,56.0,29.94,NNE,17,0.0,0.0,73,0.00,,---,0.01,VWS V14.01,2013-06-17 20:18:00,
2013-06-17 16:23:00,65.2,56.0,29.94,North,355,0.0,0.0,72,0.00,,---,0.01,VWS V14.01,2013-06-17 20:23:00,
2013-06-17 16:28:00,65.0,56.2,29.94,NNE,22,0.0,0.0,73,0.00,,---,0.01,VWS V14.01,2013-06-17 20:28:00,
2013-06-17 16:33:00,64.8,56.7,29.94,NNE,25,0.0,0.0,75,0.00,,---,0.01,VWS V14.01,2013-06-17 20:33:00,
2013-06-17 16:38:00,64.7,56.2,29.94,North,5,0.0,0.0,74,0.00,,---,0.01,VWS V14.01,2013-06-17 20:38:00,
2013-06-17 16:43:00,64.8,56.3,29.94,North,5,0.0,0.0,74,0.00,,---,0.01,VWS V14.01,2013-06-17 20:43:00,
2013-06-17 16:48:00,64.8,56.0,29.94,NNE,22,0.0,0.0,73,0.00,,---,0.01,VWS V14.01,2013-06-17 20:48:00,
2013-06-17 16:53:00,65.0,56.2,29.94,NE,36,0.0,0.0,73,0.00,,---,0.01,VWS V14.01,2013-06-17 20:53:00,
2013-06-17 16:58:00,65.0,56.2,29.94,NE,34,0.0,0.0,73,0.00,,---,0.01,VWS V14.01,2013-06-17 20:58:00,
2013-06-17 17:03:00,64.8,56.0,29.94,NE,54,0.0,0.0,73,0.00,,---,0.01,VWS V14.01,2013-06-17 21:03:00,
2013-06-17 17:08:00,64.8,56.0,29.94,ENE,58,0.0,0.0,73,0.00,,---,0.01,VWS V14.01,2013-06-17 21:08:00,
2013-06-17 17:14:00,64.8,56.0,29.95,NE,36,0.0,0.0,73,0.00,,---,0.01,VWS V14.01,2013-06-17 21:14:00,
2013-06-17 17:19:00,65.0,56.2,29.95,NE,48,0.0,0.0,73,0.00,,---,0.01,VWS V14.01,2013-06-17 21:19:00,
2013-06-17 17:24:00,64.8,55.2,29.95,ENE,63,0.0,0.0,71,0.00,,---,0.01,VWS V14.01,2013-06-17 21:24:00,
2013-06-17 17:29:00,64.8,56.0,29.95,NE,51,0.0,0.0,73,0.00,,---,0.01,VWS V14.01,2013-06-17 21:29:00,
2013-06-17 17:34:00,64.8,56.3,29.95,NNE,21,0.0,0.0,74,0.00,,---,0.01,VWS V14.01,2013-06-17 21:34:00,
2013-06-17 17:39:00,65.0,56.5,29.95,NNE,12,0.0,0.0,74,0.00,,---,0.01,VWS V14.01,2013-06-17 21:39:00,
2013-06-17 17:44:00,65.3,56.4,29.95,ENE,57,0.0,0.0,73,0.00,,---,0.01,VWS V14.01,2013-06-17 21:44:00,
2013-06-17 17:49:00,65.5,56.6,29.95,North,9,0.0,0.0,73,0.00,,---,0.01,VWS V14.01,2013-06-17 21:49:00,
2013-06-17 17:54:00,65.5,57.0,29.95,NE,34,0.0,0.0,74,0.00,,---,0.01,VWS V14.01,2013-06-17 21:54:00,
2013-06-17 17:59:00,65.3,55.7,29.94,ENE,66,0.0,0.0,71,0.00,,---,0.01,VWS V14.01,2013-06-17 21:59:00,
2013-06-17 18:04:00,65.3,55.7,29.94,ENE,60,0.0,0.0,71,0.00,,---,0.01,VWS V14.01,2013-06-17 22:04:00,
2013-06-17 18:09:00,65.2,55.6,29.94,NE,56,0.0,0.0,71,0.00,,---,0.01,VWS V14.01,2013-06-17 22:09:00,
2013-06-17 18:14:00,64.7,55.5,29.94,NNE,31,0.0,0.0,72,0.00,,---,0.01,VWS V14.01,2013-06-17 22:14:00,
2013-06-17 18:19:00,64.3,55.1,29.94,NE,35,0.0,0.0,72,0.00,,---,0.01,VWS V14.01,2013-06-17 22:19:00,
2013-06-17 18:24:00,64.0,55.2,29.94,NE,55,0.0,0.0,73,0.00,,---,0.01,VWS V14.01,2013-06-17 22:24:00,
2013-06-17 18:29:00,64.0,55.9,29.94,NE,42,0.0,0.0,75,0.00,,---,0.01,VWS V14.01,2013-06-17 22:29:00,
2013-06-17 18:34:00,63.9,55.8,29.94,ENE,69,0.0,0.0,75,0.00,,---,0.01,VWS V14.01,2013-06-17 22:34:00,
2013-06-17 18:39:00,63.5,55.1,29.94,NE,40,0.0,0.0,74,0.00,,---,0.01,VWS V14.01,2013-06-17 22:39:00,
2013-06-17 18:44:00,63.7,55.6,29.94,NE,41,0.0,0.0,75,0.00,,---,0.01,VWS V14.01,2013-06-17 22:44:00,
2013-06-17 18:49:00,63.4,55.3,29.94,NE,52,0.0,0.0,75,0.00,,---,0.01,VWS V14.01,2013-06-17 22:49:00,
2013-06-17 18:54:00,62.7,55.0,29.95,NE,51,0.0,0.0,76,0.00,,---,0.01,VWS V14.01,2013-06-17 22:54:00,
2013-06-17 18:59:00,62.6,55.3,29.94,NE,49,0.0,0.0,77,0.00,,---,0.01,VWS V14.01,2013-06-17 22:59:00,
2013-06-17 19:04:00,62.7,55.0,29.95,ENE,64,0.0,0.0,76,0.00,,---,0.01,VWS V14.01,2013-06-17 23:04:00,
2013-06-17 19:09:00,63.4,55.7,29.95,ENE,63,0.0,0.0,76,0.00,,---,0.01,VWS V14.01,2013-06-17 23:09:00,
2013-06-17 19:14:00,63.5,55.4,29.95,ENE,76,0.0,0.0,75,0.00,,---,0.01,VWS V14.01,2013-06-17 23:14:00,
2013-06-17 19:19:00,63.1,54.7,29.95,ENE,66,0.0,0.0,74,0.00,,---,0.01,VWS V14.01,2013-06-17 23:19:00,
2013-06-17 19:24:00,62.6,54.9,29.95,East,83,0.0,0.0,76,0.00,,---,0.01,VWS V14.01,2013-06-17 23:24:00,
2013-06-17 19:29:00,62.3,54.7,29.95,ENE,78,0.0,0.0,76,0.00,,---,0.01,VWS V14.01,2013-06-17 23:29:00,
2013-06-17 19:34:00,62.1,54.5,29.96,ENE,71,0.0,0.0,76,0.00,,---,0.01,VWS V14.01,2013-06-17 23:34:00,
2013-06-17 19:39:00,62.1,54.5,29.96,ENE,72,0.0,0.0,76,0.00,,---,0.01,VWS V14.01,2013-06-17 23:39:00,
2013-06-17 19:44:00,61.8,54.5,29.96,East,94,0.0,0.0,77,0.00,,---,0.01,VWS V14.01,2013-06-17 23:44:00,
2013-06-17 19:49:00,61.5,54.2,29.96,ENE,58,0.0,0.0,77,0.00,,---,0.01,VWS V14.01,2013-06-17 23:49:00,
2013-06-17 19:54:00,61.3,54.0,29.96,NE,49,0.0,0.0,77,0.00,,---,0.01,VWS V14.01,2013-06-17 23:54:00,
2013-06-17 19:59:00,61.2,54.3,29.96,ENE,57,0.0,0.0,78,0.00,,---,0.01,VWS V14.01,2013-06-17 23:59:00,
2013-06-17 20:04:00,61.0,53.8,29.96,ENE,78,0.0,0.0,77,0.00,,---,0.01,VWS V14.01,2013-06-18 00:04:00,
2013-06-17 20:10:00,60.9,53.7,29.96,ENE,60,0.0,0.0,77,0.00,,---,0.01,VWS V14.01,2013-06-18 00:10:00,
2013-06-17 20:15:00,60.7,53.5,29.96,ENE,74,0.0,0.0,77,0.00,,---,0.01,VWS V14.01,2013-06-18 00:15:00,
2013-06-17 20:20:00,60.5,53.3,29.96,NNE,26,0.0,0.0,77,0.00,,---,0.01,VWS V14.01,2013-06-18 00:20:00,
2013-06-17 20:25:00,60.2,52.6,29.96,ENE,69,0.0,0.0,76,0.00,,---,0.01,VWS V14.01,2013-06-18 00:25:00,
2013-06-17 20:30:00,60.1,52.5,29.96,East,84,0.0,0.0,76,0.00,,---,0.01,VWS V14.01,2013-06-18 00:30:00,
2013-06-17 20:35:00,60.1,52.9,29.96,ENE,67,0.0,0.0,77,0.00,,---,0.01,VWS V14.01,2013-06-18 00:35:00,
2013-06-17 20:40:00,60.2,53.0,29.96,ENE,78,0.0,0.0,77,0.00,,---,0.01,VWS V14.01,2013-06-18 00:40:00,
2013-06-17 20:45:00,60.2,53.0,29.97,ENE,78,0.0,0.0,77,0.00,,---,0.01,VWS V14.01,2013-06-18 00:45:00,
2013-06-17 20:50:00,60.2,52.6,29.97,East,97,0.0,0.0,76,0.00,,---,0.01,VWS V14.01,2013-06-18 00:50:00,
2013-06-17 20:55:00,60.2,53.0,29.97,ENE,67,0.0,0.0,77,0.00,,---,0.01,VWS V14.01,2013-06-18 00:55:00,
2013-06-17 21:00:00,60.1,52.5,29.97,ENE,74,0.0,0.0,76,0.00,,---,0.01,VWS V14.01,2013-06-18 01:00:00,
2013-06-17 21:05:00,59.9,52.3,29.98,ENE,68,0.0,0.0,76,0.00,,---,0.01,VWS V14.01,2013-06-18 01:05:00,
2013-06-17 21:10:00,59.6,52.4,29.98,ENE,76,0.0,0.0,77,0.00,,---,0.01,VWS V14.01,2013-06-18 01:10:00,
2013-06-17 21:15:00,59.3,52.5,29.98,East,83,0.0,0.0,78,0.00,,---,0.01,VWS V14.01,2013-06-18 01:15:00,
2013-06-17 21:20:00,59.2,52.3,29.98,East,83,0.0,0.0,78,0.00,,---,0.01,VWS V14.01,2013-06-18 01:20:00,
2013-06-17 21:25:00,59.0,52.5,29.98,East,83,0.0,0.0,79,0.00,,---,0.01,VWS V14.01,2013-06-18 01:25:00,
2013-06-17 21:30:00,59.0,52.5,29.98,East,83,0.0,0.0,79,0.00,,---,0.01,VWS V14.01,2013-06-18 01:30:00,
2013-06-17 21:35:00,58.9,52.8,29.99,East,83,0.0,0.0,80,0.00,,---,0.01,VWS V14.01,2013-06-18 01:35:00,
2013-06-17 21:40:00,58.7,52.9,29.99,East,83,0.0,0.0,81,0.00,,---,0.01,VWS V14.01,2013-06-18 01:40:00,
2013-06-17 21:45:00,58.6,53.1,29.99,East,83,0.0,0.0,82,0.00,,---,0.01,VWS V14.01,2013-06-18 01:45:00,
2013-06-17 21:50:00,58.4,52.9,29.99,East,83,0.0,0.0,82,0.00,,---,0.01,VWS V14.01,2013-06-18 01:50:00,
2013-06-17 21:55:00,58.0,52.9,29.99,East,83,0.0,0.0,83,0.00,,---,0.01,VWS V14.01,2013-06-18 01:55:00,
2013-06-17 22:00:00,57.5,52.7,29.99,East,83,0.0,0.0,84,0.00,,---,0.01,VWS V14.01,2013-06-18 02:00:00,
2013-06-17 22:05:00,57.0,52.5,30.00,East,83,0.0,0.0,85,0.00,,---,0.01,VWS V14.01,2013-06-18 02:05:00,
2013-06-17 22:10:00,56.9,52.8,30.00,East,83,0.0,0.0,86,0.00,,---,0.01,VWS V14.01,2013-06-18 02:10:00,
2013-06-17 22:15:00,56.7,52.6,30.00,East,83,0.0,0.0,86,0.00,,---,0.01,VWS V14.01,2013-06-18 02:15:00,
2013-06-17 22:20:00,56.6,52.5,30.00,East,83,0.0,0.0,86,0.00,,---,0.01,VWS V14.01,2013-06-18 02:20:00,
2013-06-17 22:25:00,56.5,52.7,30.00,East,83,0.0,0.0,87,0.00,,---,0.01,VWS V14.01,2013-06-18 02:25:00,
2013-06-17 22:30:00,56.5,52.7,30.01,East,83,0.0,0.0,87,0.00,,---,0.01,VWS V14.01,2013-06-18 02:30:00,
2013-06-17 22:35:00,56.3,52.5,30.01,East,83,0.0,0.0,87,0.00,,---,0.01,VWS V14.01,2013-06-18 02:35:00,
2013-06-17 22:40:00,56.0,52.5,30.01,East,83,0.0,0.0,88,0.00,,---,0.01,VWS V14.01,2013-06-18 02:40:00,
2013-06-17 22:45:00,55.9,52.4,30.01,East,83,0.0,0.0,88,0.00,,---,0.01,VWS V14.01,2013-06-18 02:45:00,
2013-06-17 22:50:00,55.7,52.2,30.01,East,83,0.0,0.0,88,0.00,,---,0.01,VWS V14.01,2013-06-18 02:50:00,
2013-06-17 22:56:00,55.6,52.4,30.01,East,83,0.0,0.0,89,0.00,,---,0.01,VWS V14.01,2013-06-18 02:56:00,
2013-06-17 23:01:00,55.3,52.1,30.02,East,83,0.0,0.0,89,0.00,,---,0.01,VWS V14.01,2013-06-18 03:01:00,
2013-06-17 23:06:00,55.1,51.9,30.02,East,83,0.0,0.0,89,0.00,,---,0.01,VWS V14.01,2013-06-18 03:06:00,
2013-06-17 23:11:00,54.8,51.9,30.02,East,83,0.0,0.0,90,0.00,,---,0.01,VWS V14.01,2013-06-18 03:11:00,
2013-06-17 23:16:00,54.8,51.9,30.02,East,83,0.0,0.0,90,0.00,,---,0.01,VWS V14.01,2013-06-18 03:16:00,
2013-06-17 23:21:00,54.5,51.6,30.02,East,83,0.0,0.0,90,0.00,,---,0.01,VWS V14.01,2013-06-18 03:21:00,
2013-06-17 23:26:00,54.4,51.8,30.03,East,83,0.0,0.0,91,0.00,,---,0.01,VWS V14.01,2013-06-18 03:26:00,
2013-06-17 23:31:00,54.4,51.8,30.03,East,83,0.0,0.0,91,0.00,,---,0.01,VWS V14.01,2013-06-18 03:31:00,
2013-06-17 23:36:00,54.2,51.6,30.03,East,83,0.0,0.0,91,0.00,,---,0.01,VWS V14.01,2013-06-18 03:36:00,
2013-06-17 23:41:00,53.9,51.3,30.03,East,83,0.0,0.0,91,0.00,,---,0.01,VWS V14.01,2013-06-18 03:41:00,
2013-06-17 23:46:00,53.6,51.3,30.03,East,83,0.0,0.0,92,0.00,,---,0.01,VWS V14.01,2013-06-18 03:46:00,
2013-06-17 23:51:00,53.3,51.0,30.03,East,83,0.0,0.0,92,0.00,,---,0.01,VWS V14.01,2013-06-18 03:51:00,
2013-06-17 23:56:00,53.2,50.9,30.04,East,83,0.0,0.0,92,0.00,,---,0.01,VWS V14.01,2013-06-18 03:56:00,